STARLINK-36845, 68056

Orbit data source: Space-Track

STARLINK-36845, 68056 is a payload satellite owned by SpaceX/Seattle (US) in LEO that was launched on Mon, 02 Mar 2026 UTC via an FALCON 9 launch vehicle from the Air Force Eastern Test Range (AFETR). Payload-class satellites include a variety of spacecraft equipped with specific instruments for various scientific and technological missions. These include communications satellites like Starlink; space stations such as the ISS; scientific satellites like the Hubble; Earth observation satellites from companies like Planet Labs, Umbra, and HawkEye 360; GPS; miniature CubeSats for education and research; and military/defense satellites.

Loading next visibility...
Identifier
68056, 2026-041S
Orbit
LEO
Country
Flag of USUS
Related business
Manufacturer
SpaceX/Seattle
Mission
Operational Commercial Communications
Bus & Motor
STARLINK V2MO, Unknown motor
Mass
575 kg wet, ~530 kg dry
Launch date (UTC)
2026-03-02 (2 months ago)
Launch vehicle
FALCON 9
Launch site
Air Force Eastern Test Range (AFETR)
Object type
Payload
Rocket body
Debris
Shape & HBR
Box + 2 Pan, 17.7 m
Radar Cross Section
36.964 m²

Expand to show TLE details & history
Last TLE update: 1 day ago

TLE from 1 day ago
0 STARLINK-36845
1 68056U 26041S   26118.42915005  .00025201  00000-0  65459-3 0  9994
2 68056  53.1608 178.1230 0001102  73.0919 287.0206 15.38828780  9010
Epoch: 2026-04-28T10:17Z
TLE epoch observation values (Epoch: 2026-04-28T10:17:58.564Z)
Latitude
-0.00004°
Longitude
167.22436°
Altitude
450.255 km
Speed
7.644 km/s
True Right ascension
11h 52m 29s
True Declination
0° 00' 00"
Sunlit
Object was in full shadow at epoch
Visualization orbit readout
Latitude
Unknown
Longitude
Unknown
Altitude
Unknown
Speed
Unknown
Apparent Right ascension
Unknown
Apparent Declination
Unknown
Sunlit
N/A
Visualization observer readout
Local Sidereal Time
19:24:30
Azimuth
Unknown
Elevation
Unknown
Doppler factor
Unknown
Orbital elements
Apogee altitude
450.581 km
Perigee altitude
449.076 km
Semi-major axis
6,827.966 km
Eccentricity
0.00011
Inclination
53.1608°
RAAN
178.123°
Arg. of periapsis
73.0919°
True anomaly
287.00852°
Mean anomaly
287.0206°
Eccentric anomaly
287.01456°
Mean motion
3.84686 °/min
Orbital period
93.58 mins
BSTAR
0.00065459
Loading maneuver chart data...
Computing Atmospheric mass density...
Loading historical data...
Loading historical data...
Loading historical data...
Loading historical data...
Loading historical data...
Loading historical data...
Loading historical data...

Documentation

Showing up to 5 results
|